Wind_Speed
58 55 53 51 51 50 48 48 43 38 43 48 46 43 37 33 34 33 28 28 29 28 23 19 17 19 21 22 21 19 17 15 13 14 17 19 21 24 26 24 21 19 21 25 27 26 22 20 21 21 20 19 18 17 18 21 22 21 21 21 21 21 21 20 21 22 23 23 23 22 21 19 18 17 16 15 14 13 12 12 12 12 11 9 8 8 8
58 56 54 51 51 51 49 49 44 36 39 47 47 42 36 31 32 30 27 27 30 31 28 26 25 25 24 24 23 23 23 19 15 14 16 19 21 21 22 21 18 18 22 26 28 28 26 23 23 23 22 20 18 15 15 18 20 21 21 21 21 20 20 21 21 22 23 23 22 21 20 19 18 17 16 15 14 13 13 13 13 12 11 10 9 9 9
59 57 55 51 49 49 48 47 44 36 35 44 47 42 35 31 28 27 25 24 28 35 35 32 32 32 31 29 28 27 26 23 18 16 17 20 22 20 21 22 19 20 23 26 27 28 25 24 24 25 23 21 18 16 14 15 17 19 20 19 19 19 20 21 22 22 22 22 21 21 20 19 19 18 17 17 16 15 15 14 14 13 13 11 10 10 9
61 58 54 48 45 48 49 47 46 42 38 42 49 45 38 33 27 24 25 24 25 32 38 39 38 37 35 34 31 29 28 25 20 17 18 23 24 22 23 24 22 22 23 23 25 26 24 22 22 23 23 22 20 18 16 15 16 17 17 17 17 17 18 19 20 20 20 20 20 20 20 20 19 19 19 18 17 17 16 16 15 15 14 13 11 11 9
64 59 54 48 45 50 54 52 51 50 45 43 49 50 42 37 30 24 25 27 25 27 33 39 42 42 39 38 36 34 32 29 24 19 19 25 27 24 23 24 23 23 22 21 23 26 26 23 21 22 23 22 21 20 19 18 16 15 16 15 14 14 14 14 14 14 14 15 16 16 16 17 17 18 17 17 17 18 18 18 18 17 16 15 13 11 10
67 60 55 52 50 52 57 57 55 55 50 43 47 53 47 38 33 28 28 29 29 30 31 34 39 42 41 39 38 36 34 31 26 21 21 25 29 27 26 26 25 24 23 23 26 29 29 27 26 25 25 25 23 23 23 21 19 17 16 16 15 14 13 12 11 12 12 11 12 13 14 15 15 15 15 16 18 19 20 21 20 19 17 16 15 13 11
69 59 55 56 55 54 57 59 57 55 51 44 44 52 49 40 36 35 34 34 34 34 34 33 36 39 39 37 35 32 31 29 26 23 23 25 28 28 28 28 28 28 27 29 31 31 30 29 29 28 29 29 27 26 25 24 22 20 19 19 18 16 15 14 13 12 12 11 12 12 13 14 14 14 15 16 17 19 20 22 22 21 20 19 18 15 14
69 62 58 57 56 55 57 59 57 55 52 46 45 50 50 43 39 39 38 38 39 38 36 34 36 38 37 34 31 29 28 27 26 25 24 24 26 28 27 27 28 28 30 32 33 32 30 28 28 28 29 29 29 28 27 26 25 24 23 22 21 19 17 16 15 14 13 13 12 12 12 13 13 14 16 17 17 18 20 22 23 24 23 21 19 17 16
70 66 60 53 53 56 57 58 59 57 53 50 48 51 52 48 46 45 42 40 41 40 37 34 35 38 36 31 29 29 28 28 28 27 25 24 25 26 26 24 23 23 25 27 28 28 29 28 28 28 28 28 28 28 28 27 27 27 26 25 23 21 19 18 17 17 16 15 14 13 13 12 12 13 15 17 18 18 19 21 23 24 23 21 20 19 18
71 69 62 51 50 56 58 59 61 60 56 54 53 53 54 53 53 52 47 44 45 42 39 38 38 38 35 31 30 31 30 30 30 28 26 24 23 24 24 23 21 20 20 20 21 22 24 26 27 28 28 28 28 28 27 27 27 27 27 25 23 21 19 17 18 19 18 17 16 15 15 14 13 14 15 16 18 19 19 20 22 24 24 23 22 21 19
71 70 66 55 50 54 59 60 61 59 58 58 56 54 54 57 57 54 49 48 47 43 41 41 41 39 36 34 34 33 32 32 32 30 28 26 24 23 23 22 21 20 19 19 19 19 20 21 22 24 25 26 27 27 27 26 25 24 23 22 21 20 19 18 18 20 20 19 19 18 17 16 16 16 17 17 17 19 20 20 21 23 24 24 23 21 19
74 71 69 61 49 48 55 58 58 59 60 60 57 54 55 59 59 55 51 50 49 48 46 43 42 41 39 37 36 35 34 34 34 33 30 28 26 25 24 23 23 21 20 20 20 20 21 21 21 21 22 22 23 25 26 26 25 24 22 21 20 20 20 20 20 21 21 21 21 21 20 19 19 20 20 18 17 17 19 20 22 23 24 23 21 20 20
76 73 72 68 52 43 48 55 57 60 63 60 58 57 57 60 61 58 55 53 51 54 54 49 45 45 44 41 40 39 38 37 36 35 33 30 30 28 26 24 23 23 22 21 20 21 22 22 22 23 23 23 24 24 24 24 24 24 24 24 24 24 23 23 22 23 23 23 24 25 24 22 22 22 22 21 19 17 17 19 22 23 24 23 23 22 22
78 75 73 73 60 44 43 51 58 62 64 61 61 59 58 61 65 62 59 58 56 56 58 55 52 50 48 45 44 43 42 41 39 37 35 33 33 32 29 26 24 23 22 22 22 22 23 23 24 24 25 26 26 26 26 25 24 24 25 25 26 26 26 25 24 24 25 24 25 26 26 24 23 23 23 22 21 19 18 18 20 22 24 24 24 24 24
79 79 75 74 68 52 42 48 58 64 65 63 64 62 58 61 68 68 64 62 60 59 59 58 56 55 52 47 46 46 45 44 42 39 37 35 34 33 31 29 27 26 24 23 23 24 24 24 24 25 25 26 26 26 26 26 26 26 26 26 27 27 27 27 27 27 28 27 28 28 28 26 25 24 24 24 23 21 20 19 19 20 22 23 24 24 24
74 80 80 75 72 61 47 48 58 66 66 65 67 66 59 58 67 72 68 65 63 61 60 58 56 57 56 51 48 48 47 45 43 41 37 35 33 32 31 30 30 28 26 24 24 23 24 24 24 24 24 25 25 26 26 26 26 26 27 27 28 28 28 28 29 30 31 31 30 30 30 29 26 25 25 25 24 23 22 21 21 20 20 21 22 22 23
66 75 82 81 74 67 56 49 54 64 69 66 68 71 62 53 62 72 71 67 66 65 62 59 55 55 57 55 51 50 48 45 44 41 38 36 34 32 32 31 31 30 29 27 25 23 23 23 23 24 24 24 25 25 25 26 26 27 27 27 27 27 27 27 28 29 30 31 31 32 31 30 28 26 26 26 26 25 24 23 22 22 21 20 21 22 23
60 64 77 84 79 72 64 53 49 59 68 67 68 74 66 51 56 72 75 70 69 68 65 61 57 54 56 56 54 53 50 48 46 44 41 39 37 35 34 34 34 34 33 31 29 26 25 25 24 24 24 24 24 24 25 25 26 27 27 27 26 26 26 26 26 26 27 29 30 32 32 31 30 29 28 28 28 27 27 25 24 24 23 22 21 22 22
57 56 66 79 81 77 72 61 50 53 64 67 68 73 68 56 56 69 74 71 70 70 68 64 61 57 55 56 56 55 53 51 49 47 46 44 42 40 38 38 39 38 37 35 33 30 28 28 27 26 25 25 25 25 25 25 26 26 26 26 26 26 26 25 25 24 25 26 28 30 32 32 32 32 31 31 30 30 29 28 27 26 25 24 23 23 23
54 55 57 67 78 83 79 71 60 53 56 64 70 71 68 62 60 64 67 67 67 70 70 67 64 61 58 58 57 56 54 53 52 51 49 47 46 43 41 41 41 41 40 39 37 35 33 32 31 29 27 26 26 25 25 25 26 26 26 26 26 26 26 25 24 24 24 24 26 28 31 32 32 33 33 34 33 33 33 32 31 30 29 28 27 27 27
49 54 54 56 68 83 85 78 70 61 53 56 65 69 67 65 64 64 64 63 65 69 72 71 67 63 61 60 59 57 56 55 54 53 51 49 47 45 42 42 44 44 43 42 40 38 37 35 33 32 30 28 27 26 26 26 27 27 27 27 27 26 26 26 25 25 25 25 26 27 29 29 30 31 33 33 34 34 35 34 34 34 33 33 33 32 32
42 51 55 52 56 71 84 84 78 69 58 52 55 62 65 68 68 67 64 61 61 63 66 69 68 65 63 61 59 59 58 57 56 53 50 47 44 42 41 42 43 44 44 44 43 42 40 38 36 35 33 31 29 28 28 27 28 29 29 29 28 28 27 27 27 27 27 27 28 28 28 28 29 30 31 32 33 33 33 34 34 35 35 36 36 36 36
38 46 55 57 54 58 72 81 81 77 70 60 54 55 59 64 69 70 68 65 61 59 59 60 61 61 60 59 59 60 60 60 58 54 49 45 42 39 38 39 40 42 43 43 44 44 43 41 39 38 37 35 33 31 30 30 30 30 30 30 30 29 29 29 29 29 29 29 30 30 30 30 30 30 31 32 32 33 33 34 35 35 36 37 38 39 39
38 42 51 58 59 59 63 70 76 77 75 70 63 58 56 57 63 71 74 71 65 61 59 58 57 57 57 58 60 61 62 61 59 56 53 49 46 43 41 39 38 40 42 43 43 43 44 44 42 40 39 38 36 35 33 32 32 32 32 32 32 32 31 31 31 30 30 30 31 31 31 31 31 32 32 33 34 34 35 35 36 37 38 39 40 40 40
39 43 48 54 59 62 62 65 69 73 73 70 66 64 61 57 56 62 71 74 70 64 61 60 59 59 60 61 62 64 63 61 59 57 55 53 51 50 48 43 39 38 40 42 42 42 43 45 45 43 41 40 39 38 36 35 34 34 34 34 34 33 33 32 32 32 32 32 32 32 33 33 33 34 35 35 36 37 38 37 37 38 39 40 40 40 40
40 44 49 54 57 60 61 62 64 67 71 71 67 65 65 62 56 54 58 66 71 68 65 63 62 62 63 64 66 66 65 61 58 56 55 54 54 54 52 47 42 39 39 40 41 40 41 43 45 45 43 42 41 40 39 38 37 36 35 35 35 35 35 34 34 34 34 35 35 35 35 36 36 37 38 39 40 41 41 40 40 40 41 41 40 40 41
44 46 51 57 59 58 60 63 62 63 68 70 68 66 66 66 63 58 53 56 62 66 66 65 64 64 65 66 67 67 66 62 59 57 56 56 56 56 54 51 47 44 41 41 40 40 40 41 43 44 44 43 43 42 41 40 39 38 38 37 37 37 37 36 36 36 36 36 37 37 38 38 38 39 41 42 43 43 40 39 41 43 42 41 40 40 42
49 49 51 56 58 57 60 64 64 63 66 70 68 66 66 66 67 65 60 57 57 60 62 63 62 61 62 64 66 67 66 63 61 59 58 58 59 58 57 55 52 49 47 46 44 42 41 42 42 42 43 43 43 43 42 42 41 41 40 39 39 39 39 39 39 39 38 38 39 39 40 40 41 42 43 44 43 42 40 40 42 43 42 40 39 40 42
56 59 59 57 56 56 60 65 66 64 65 69 70 69 68 68 68 67 65 62 60 60 62 63 63 63 63 63 63 63 63 62 61 61 60 60 60 60 60 59 58 56 53 51 48 45 43 43 43 43 43 43 43 43 44 44 43 43 42 41 41 41 41 41 41 41 40 40 40 41 41 42 43 44 45 44 43 43 43 44 44 44 43 42 41 41 43
39 52 62 66 65 62 62 64 67 66 65 67 68 68 69 70 70 69 67 65 63 63 62 61 62 66 70 69 67 65 64 63 62 62 61 61 62 62 62 62 63 61 57 53 50 47 45 44 44 43 43 43 43 44 44 45 45 45 44 44 43 42 42 42 42 42 42 41 42 42 42 43 43 44 45 45 45 44 45 46 46 46 46 45 44 43 44
16 24 36 51 64 70 69 68 69 69 69 69 69 68 67 68 69 69 67 65 65 66 64 61 59 62 67 70 71 71 71 71 69 68 68 67 67 67 66 64 63 61 57 53 51 48 45 45 45 44 44 44 44 44 45 45 46 46 46 46 45 44 44 44 43 43 43 43 43 43 43 44 44 44 45 46 46 46 46 46 47 48 48 47 46 46 46
14 15 17 24 38 52 63 70 74 74 73 73 72 71 69 68 68 68 66 64 65 66 64 61 58 58 61 63 64 64 66 69 69 70 71 71 70 69 67 63 60 57 53 50 48 46 44 45 45 44 45 45 45 45 45 46 46 47 47 48 47 47 46 46 45 45 44 44 44 44 44 45 46 46 46 47 47 47 47 47 48 48 49 50 50 50 50
11 16 18 18 19 25 37 53 67 76 78 78 77 76 74 72 71 70 68 65 64 64 62 60 59 58 59 62 60 55 54 56 58 59 61 62 62 63 62 60 57 53 48 45 43 41 41 42 43 43 43 44 44 45 46 46 47 47 48 48 48 48 48 47 47 46 46 45 45 46 46 46 47 47 48 48 49 49 49 49 49 50 51 51 52 53 53
4 9 14 17 18 17 20 30 46 62 72 78 80 81 81 79 76 75 73 72 69 66 63 62 61 60 61 64 64 59 53 51 51 51 51 51 52 53 53 52 51 49 46 43 41 40 40 42 43 44 43 43 43 44 44 45 46 47 48 48 49 49 49 49 48 48 48 47 47 47 48 48 49 49 50 50 51 52 52 52 52 53 53 54 54 55 56
5 5 7 11 15 17 18 21 29 43 57 68 75 80 84 86 85 83 80 78 77 74 71 68 65 64 63 66 69 67 64 60 57 53 51 50 49 49 48 47 47 47 45 44 44 43 44 45 47 47 47 46 46 46 46 46 45 45 46 47 48 49 49 50 50 50 50 50 50 50 50 51 51 51 52 53 53 54 55 55 56 56 56 57 57 58 58
9 8 6 7 9 13 17 19 21 27 38 51 62 71 78 82 85 86 86 86 85 83 81 77 72 69 68 69 70 70 70 69 67 64 60 57 56 54 53 52 52 52 51 51 51 50 50 51 52 52 52 51 50 50 50 50 49 49 49 49 50 50 51 51 52 52 52 53 53 53 53 53 53 54 55 55 56 57 58 58 59 59 60 60 60 61 61
11 10 9 7 6 7 10 15 19 21 25 32 42 54 64 72 76 78 81 84 87 88 88 86 82 79 76 75 75 74 74 74 73 71 68 66 64 62 61 60 60 60 60 59 58 57 56 55 55 53 53 53 53 53 53 53 53 52 52 52 53 53 54 54 55 55 56 56 56 57 57 57 57 57 57 58 58 59 60 60 61 61 62 63 63 64 64
11 10 10 10 9 9 9 11 15 20 22 24 27 33 43 53 63 68 72 76 79 83 86 87 87 86 84 83 82 81 79 78 77 75 72 70 69 68 67 66 65 65 64 63 62 61 59 58 56 54 52 51 51 50 51 52 53 54 54 55 55 55 55 56 57 57 58 59 59 60 60 61 61 61 61 60 61 61 62 62 63 63 64 65 65 66 66
15 13 11 10 10 10 10 11 11 15 20 23 24 25 28 34 42 52 60 67 71 74 76 78 80 82 83 84 84 84 82 80 78 75 72 70 69 69 68 67 66 66 64 63 62 61 60 58 57 55 54 54 54 54 54 54 54 54 54 54 55 55 56 57 57 58 59 60 61 61 61 62 62 63 63 63 64 64 64 65 65 66 66 67 67 68 68
17 17 15 11 8 7 7 8 8 9 13 17 20 22 24 26 29 35 44 54 61 67 70 72 73 74 76 78 79 80 80 79 77 73 69 68 67 66 65 65 64 64 63 62 61 61 60 58 55 52 48 46 47 51 55 55 55 55 54 53 53 54 55 56 57 58 59 60 61 62 62 63 63 64 64 65 66 66 67 67 68 68 68 69 69 69 70
14 16 16 14 10 6 6 5 6 7 10 13 16 18 21 23 25 28 33 40 49 57 63 67 70 72 72 73 73 74 75 74 71 67 64 64 64 63 62 61 61 60 59 58 58 58 58 56 52 49 45 42 40 42 45 47 48 49 50 52 53 54 55 56 57 58 59 61 61 62 63 64 65 65 66 66 67 67 68 68 69 69 70 70 70 71 71
10 11 13 14 13 8 6 7 6 6 7 10 14 16 18 20 22 23 25 29 35 43 50 56 62 67 70 71 71 71 70 67 63 60 59 59 58 57 57 57 56 55 55 55 55 55 55 54 52 51 52 53 53 53 54 54 53 51 51 53 54 55 57 59 60 61 61 62 63 64 64 65 65 66 67 67 68 68 68 69 69 69 70 70 71 71 72
10 8 7 9 11 9 7 8 7 6 5 6 9 12 14 17 19 21 21 22 26 31 38 44 50 56 61 64 67 69 67 63 59 57 56 54 51 49 49 51 53 54 55 56 56 56 57 57 56 56 57 59 61 61 61 62 61 59 57 56 57 57 58 59 61 62 63 64 65 65 66 66 67 67 68 68 68 68 68 68 68 69 69 70 71 71 72
11 9 6 5 6 7 7 7 8 8 7 6 8 8 9 13 16 18 19 20 23 28 32 36 40 43 47 52 58 62 63 61 58 54 51 50 49 49 49 51 53 55 56 58 59 59 59 59 59 59 60 62 64 64 64 64 63 62 60 59 60 60 61 61 61 61 63 64 65 66 67 67 68 68 68 67 68 68 68 69 69 70 70 71 71 72 72
11 10 8 5 2 3 4 5 7 8 7 8 10 9 8 10 14 16 16 17 21 25 29 30 31 33 36 41 47 52 56 58 56 53 49 49 51 52 53 54 54 54 55 56 58 58 58 58 58 60 61 62 64 65 65 65 63 62 61 61 61 62 62 62 62 61 61 62 64 65 67 67 68 68 68 68 68 68 68 68 69 69 70 70 71 71 71
12 11 9 7 4 2 2 4 6 6 5 8 11 11 10 10 13 14 15 16 19 21 23 24 24 25 27 31 37 43 49 52 53 50 49 49 51 53 54 55 55 54 54 53 53 54 54 54 54 56 57 58 58 59 59 58 58 57 57 58 58 59 60 60 60 60 60 60 60 61 62 63 64 65 65 66 66 67 67 67 67 68 68 68 69 69 69
13 12 11 9 7 5 2 4 6 8 9 9 10 11 12 13 13 14 15 17 20 22 23 24 24 24 24 28 34 41 46 49 48 47 47 48 49 51 53 54 53 53 53 54 53 52 52 52 52 52 53 53 53 52 52 53 53 54 54 54 55 56 56 57 57 58 57 57 56 55 55 55 55 56 56 56 56 56 57 57 57 57 56 56 56 56 56
13 13 12 11 9 8 6 4 5 8 11 13 13 13 15 15 15 15 16 17 18 22 27 29 30 29 29 32 37 43 46 45 43 43 43 44 46 48 50 52 51 50 51 51 52 52 52 52 53 53 52 51 50 50 50 51 51 52 52 51 52 53 53 54 54 54 54 52 51 49 48 46 46 45 44 44 43 43 44 45 46 46 47 47 47 48 48
13 12 12 11 11 10 9 7 6 5 8 12 15 17 18 18 18 18 18 17 17 19 22 27 32 36 38 40 43 45 43 41 38 36 36 39 43 45 47 50 50 49 47 46 46 48 50 52 54 55 55 53 50 49 50 50 49 48 46 44 43 43 44 44 44 44 44 44 44 43 42 41 40 39 39 39 40 41 42 44 46 47 48 48 48 49 49
15 13 12 11 11 11 9 9 9 8 7 8 12 16 19 20 21 20 20 20 21 20 20 23 29 35 41 45 47 44 39 35 34 34 34 38 42 45 46 46 47 46 44 42 41 42 44 46 50 53 55 53 50 48 47 46 45 45 43 40 38 37 37 37 38 39 40 40 40 41 41 41 41 41 41 42 42 43 45 47 48 50 50 50 49 49 49
16 15 13 11 11 11 10 10 10 10 10 10 9 11 15 19 21 22 22 22 23 24 24 24 26 30 34 40 45 44 39 35 35 36 36 37 39 41 43 44 44 43 41 40 41 42 43 43 44 46 49 49 48 47 47 46 45 44 44 43 41 40 39 40 41 42 43 43 43 43 43 44 44 44 44 44 43 45 47 50 51 52 52 51 49 48 48
16 16 15 13 11 11 11 10 10 10 12 12 12 11 11 13 16 19 21 21 22 23 24 25 27 29 31 35 41 44 43 41 40 40 41 41 41 41 42 43 44 43 41 40 39 41 42 43 44 45 46 47 48 49 49 48 47 46 45 45 45 45 45 45 45 45 46 45 44 44 43 43 43 43 42 42 42 45 49 52 53 52 51 50 49 48 48
Wind_Direction
184 185 186 191 196 195 196 198 199 201 207 211 216 219 218 219 220 215 212 206 192 189 187 175 181 199 204 215 225 224 221 218 217 217 211 205 201 194 191 194 196 203 211 210 205 203 202 201 194 187 183 185 188 190 194 196 196 194 194 194 194 194 194 194 197 197 196 193 192 192 193 191 189 189 188 190 192 196 204 210 215 223 229 230 232 234 236
179 180 184 190 195 197 200 201 199 199 202 206 212 217 214 216 220 216 214 211 197 189 187 182 187 198 202 211 221 224 226 224 218 217 212 205 204 198 190 188 189 193 200 202 201 201 204 204 197 191 187 189 193 194 195 195 194 192 190 190 192 191 189 189 191 194 196 196 196 196 196 194 194 194 195 197 198 201 208 213 217 224 228 229 229 230 230
176 179 183 189 194 197 200 201 199 200 201 202 207 212 212 212 217 215 212 211 202 197 195 193 196 203 206 211 219 225 230 232 228 223 215 207 203 195 183 182 186 191 197 200 199 199 202 204 201 196 193 192 193 195 195 190 189 189 186 183 184 183 183 187 191 194 197 199 201 202 202 203 203 204 205 205 205 208 214 216 218 223 227 228 229 229 226
175 178 182 187 191 195 198 198 198 200 203 202 201 203 205 204 207 211 206 203 207 206 202 201 203 207 209 212 217 224 230 235 235 230 219 207 200 193 184 182 188 194 196 199 199 199 198 199 201 202 199 195 192 192 191 186 185 185 180 176 175 176 180 186 190 192 196 199 204 206 208 211 212 213 215 215 215 217 220 220 220 221 224 226 228 228 223
176 178 183 185 185 190 195 196 196 199 202 202 198 195 196 195 195 201 201 199 207 215 211 207 208 211 214 216 218 224 231 236 236 235 222 206 198 192 188 188 192 195 194 194 199 200 197 194 198 204 205 199 193 191 192 191 190 186 178 175 175 176 181 185 184 188 192 197 203 208 213 216 219 221 222 224 226 226 225 224 222 220 222 224 226 227 221
178 181 186 186 183 187 191 193 195 198 199 200 198 195 192 188 184 190 201 203 206 215 217 213 212 214 217 219 220 223 228 232 231 230 221 207 197 192 191 191 195 199 199 196 196 197 196 195 196 200 201 199 196 194 194 194 194 190 183 183 184 184 187 189 189 194 198 201 206 210 216 221 224 226 226 228 230 229 227 226 223 220 220 223 224 222 217
181 182 186 183 182 185 187 190 194 196 195 195 196 194 190 185 181 189 202 205 205 212 216 215 216 218 220 220 219 218 220 223 223 222 220 210 202 198 195 193 196 199 198 193 192 193 195 195 196 195 194 196 197 197 196 196 197 195 192 191 190 189 191 195 199 204 208 212 214 215 217 222 225 226 227 229 231 230 228 226 222 219 219 220 222 219 216
184 183 183 179 179 183 184 187 191 193 193 192 190 190 188 184 185 194 203 206 205 210 214 215 217 221 223 223 221 217 216 216 214 214 216 214 210 206 201 197 196 195 192 191 193 196 195 196 197 195 193 196 197 197 198 197 197 197 196 195 192 191 194 200 207 212 216 222 226 228 230 230 229 228 226 228 230 230 228 225 222 220 220 220 222 222 221
190 187 183 176 176 179 179 183 187 189 192 190 187 188 186 184 189 198 204 206 208 209 210 212 217 221 223 223 221 216 215 214 211 209 212 215 216 213 210 207 202 196 193 193 195 198 197 198 200 199 197 198 200 200 200 199 197 196 196 196 195 193 194 199 208 215 222 229 234 240 243 242 239 235 229 226 227 230 230 227 223 221 221 221 222 222 223
194 188 183 177 175 175 176 180 185 187 191 190 186 186 186 186 194 200 202 205 208 207 205 205 212 220 222 220 218 216 216 215 211 209 211 215 217 218 217 218 215 209 206 202 199 197 197 199 203 204 202 202 202 203 204 203 201 198 195 195 196 196 196 200 208 215 223 231 236 242 247 250 248 245 239 233 228 229 230 228 224 222 222 222 223 222 222
197 191 187 183 176 171 172 178 182 186 189 189 185 185 187 192 198 202 202 205 204 200 198 200 206 215 218 216 215 214 214 215 214 212 214 215 217 219 220 221 221 218 216 214 211 208 204 203 205 207 206 204 203 204 206 206 206 203 198 198 201 203 205 210 214 217 221 228 234 239 247 254 255 252 248 244 236 231 230 229 225 223 224 225 226 227 226
199 195 191 188 177 168 171 176 179 184 187 186 185 187 190 194 200 202 203 205 200 192 193 197 200 208 212 212 213 213 214 217 218 217 217 218 218 220 222 222 222 220 218 217 217 216 214 211 211 210 207 205 204 204 206 207 208 209 209 212 216 219 221 224 225 225 224 225 230 236 241 249 255 255 251 249 247 241 235 231 228 226 227 227 228 230 230
200 198 194 190 183 171 171 176 178 181 184 184 186 191 192 193 198 201 202 204 200 194 195 196 197 203 209 209 210 214 215 217 221 222 222 224 224 224 224 223 224 222 220 218 216 216 215 214 214 213 209 206 204 205 206 208 211 214 216 220 225 228 231 231 232 233 232 228 229 234 239 244 250 253 252 250 250 249 244 238 235 232 231 230 228 229 231
200 201 198 193 189 179 172 175 179 180 182 184 186 191 194 193 196 199 201 203 201 197 198 199 197 201 208 208 209 214 216 218 223 225 226 226 227 227 226 225 225 224 222 220 218 217 216 215 215 213 210 207 206 206 207 209 211 214 218 222 226 228 231 233 234 236 237 234 231 232 238 243 246 250 251 249 249 249 247 244 241 238 236 234 231 230 230
199 203 202 197 194 188 174 174 179 180 182 185 185 189 195 194 194 197 200 202 202 200 201 204 202 202 206 208 209 213 217 219 224 227 227 227 228 227 226 225 225 224 223 222 219 217 215 214 214 214 213 211 209 208 209 210 211 213 216 219 224 227 228 230 231 231 232 234 233 232 235 240 243 245 246 247 248 248 248 247 245 243 241 239 237 233 231
198 201 204 202 199 195 185 178 179 180 181 185 185 188 192 191 191 196 198 200 202 204 205 208 207 205 206 208 209 212 216 220 223 226 225 225 226 228 228 228 228 227 226 226 223 220 216 213 212 214 215 214 212 210 209 210 211 212 214 216 220 224 226 227 228 228 227 228 230 231 232 236 239 241 242 243 244 246 246 247 247 247 246 244 241 236 231
197 199 203 204 203 202 197 186 179 179 182 184 186 189 190 185 187 194 198 199 203 205 208 211 211 207 204 205 208 211 215 219 222 224 224 223 224 227 229 232 233 231 230 231 230 226 222 218 214 212 213 214 215 214 211 210 211 212 212 214 217 221 224 225 227 227 227 226 227 228 230 232 234 237 239 241 242 244 246 246 246 247 247 246 242 238 233
195 197 201 205 207 207 204 195 182 179 182 183 184 189 190 183 183 192 198 200 202 204 208 211 212 210 207 207 208 211 214 218 222 223 224 224 226 227 229 232 235 234 232 233 233 230 226 225 222 217 215 215 217 218 216 213 212 212 212 213 215 218 222 224 226 227 227 226 225 225 227 228 229 231 235 238 241 243 246 246 246 247 247 245 243 240 238
193 196 199 204 208 209 207 203 192 182 182 183 184 188 190 186 182 190 197 199 201 203 207 209 211 211 211 210 211 213 214 216 219 222 223 225 226 228 229 231 233 233 233 232 232 229 226 226 226 223 220 219 219 220 220 218 217 216 215 215 217 220 223 225 227 228 229 228 226 225 224 225 225 227 230 235 238 241 244 246 246 246 247 246 244 242 240
191 196 199 203 208 210 209 207 203 193 185 184 185 187 191 191 189 192 196 199 201 203 206 208 208 209 210 210 212 214 216 217 218 219 221 223 226 228 229 229 230 231 233 233 231 228 225 226 226 225 223 222 222 223 223 224 223 221 220 218 219 222 226 229 230 232 232 233 232 230 228 228 227 227 228 232 235 238 241 243 244 245 246 246 245 244 242
193 197 200 203 208 211 210 210 210 205 195 188 188 189 191 192 194 196 198 200 202 204 206 209 209 208 207 208 210 213 217 219 220 221 222 225 228 230 230 229 229 231 234 236 235 231 228 227 227 227 226 225 226 226 226 227 227 227 225 223 223 224 227 231 234 235 236 236 236 236 236 236 236 234 234 234 236 238 239 241 243 244 245 246 246 246 245
196 197 201 203 207 210 212 213 214 213 207 199 194 194 194 193 194 196 197 197 199 201 204 207 209 209 208 209 211 213 217 220 222 223 224 225 225 226 227 228 230 232 235 236 237 236 234 231 231 231 230 228 228 228 229 230 231 230 230 228 228 228 231 234 236 237 237 238 239 240 241 242 242 242 242 243 244 244 244 244 244 245 246 247 247 247 246
201 201 204 205 206 209 212 214 216 217 217 214 207 201 198 196 196 198 199 197 197 200 202 204 207 209 210 212 214 217 219 222 222 222 221 219 217 219 223 225 229 234 236 237 237 238 238 237 236 236 234 233 232 232 231 231 232 233 233 233 233 233 235 237 239 240 240 241 241 241 242 242 243 244 245 246 247 248 248 247 247 248 248 249 249 248 248
208 206 207 207 208 211 214 216 216 217 219 222 220 216 212 206 200 200 201 201 200 202 204 204 205 207 210 213 216 218 221 224 225 223 220 218 219 222 224 226 230 236 238 238 237 238 239 240 241 240 239 238 238 238 237 235 234 235 235 236 236 236 237 238 240 242 243 244 244 245 244 244 244 245 246 247 248 249 249 249 249 249 249 249 250 250 250
215 212 211 210 210 212 216 220 220 220 221 224 226 226 226 222 213 206 205 205 204 204 204 205 205 207 210 214 218 220 222 225 227 226 224 223 224 226 227 231 237 240 239 237 237 237 238 240 242 243 243 242 242 242 243 242 241 239 238 239 239 239 239 239 240 242 244 246 247 248 248 248 248 248 249 249 250 251 251 251 252 252 251 251 251 251 251
220 218 217 215 213 213 216 220 223 224 226 229 230 230 230 230 226 218 212 209 208 208 208 208 208 210 212 215 218 220 222 224 227 228 228 228 228 229 232 237 242 242 239 237 236 237 237 238 240 242 244 245 245 245 246 247 247 246 244 244 244 244 243 243 243 244 245 247 249 250 250 250 250 251 251 251 251 251 252 253 255 254 254 254 256 256 255
226 223 222 219 215 215 217 220 222 224 227 230 232 233 233 233 232 229 225 219 214 213 212 211 211 212 214 216 219 221 222 224 226 227 230 232 233 235 238 241 243 244 244 241 240 240 239 238 238 240 242 244 246 247 248 248 249 250 250 248 248 248 248 247 247 247 247 249 250 251 252 252 253 253 253 253 252 251 251 252 255 255 254 256 259 260 259
234 231 229 224 219 219 220 220 220 223 227 230 232 233 233 234 234 234 233 230 225 223 222 220 218 217 217 217 219 222 223 225 226 228 230 233 236 238 241 243 244 247 249 247 246 245 242 239 238 238 239 241 243 245 247 249 250 252 252 251 251 250 250 250 250 250 250 250 251 252 253 254 254 254 254 254 254 255 254 255 256 255 255 255 255 255 256
238 237 235 229 225 224 224 222 221 222 225 227 230 232 233 233 233 233 234 233 230 230 230 229 229 230 229 225 223 223 225 227 229 231 232 234 237 239 241 244 247 250 251 250 249 247 243 240 238 238 238 239 241 242 245 247 249 251 252 252 252 252 252 252 252 252 252 252 252 253 253 254 255 256 256 256 256 258 259 259 259 258 258 257 257 256 257
236 237 237 235 232 230 227 224 222 222 223 223 225 228 230 231 231 230 230 230 228 227 228 229 230 233 236 235 232 231 231 231 233 234 235 237 239 241 244 247 250 251 251 249 247 244 242 240 238 237 237 238 239 240 242 244 246 248 250 251 251 252 251 252 252 252 253 253 254 254 254 254 255 257 258 258 259 259 260 261 262 262 262 263 263 262 262
230 235 237 237 236 235 232 229 227 225 224 223 223 223 224 227 227 226 225 226 224 222 223 224 225 227 231 235 235 235 236 237 238 239 240 240 241 243 245 247 248 248 247 245 243 241 241 240 239 238 237 238 238 240 241 242 244 246 248 250 251 251 252 251 251 251 252 253 253 254 255 255 256 256 257 259 260 260 260 260 261 263 264 264 264 263 263
227 228 230 234 235 235 233 232 231 230 228 226 225 223 222 222 222 221 220 222 221 218 217 219 220 220 223 227 230 231 232 233 236 238 239 240 240 241 242 243 242 242 242 241 239 239 239 240 240 239 238 237 237 238 239 241 243 244 246 248 250 251 252 253 253 253 252 252 253 254 255 256 257 257 258 259 260 260 260 261 261 262 263 264 264 264 264
227 225 226 231 236 234 231 229 230 231 231 231 229 226 224 223 222 221 220 220 219 216 215 215 216 216 217 220 223 222 222 224 227 231 233 234 234 234 236 237 236 236 236 235 234 234 235 237 238 238 238 237 237 236 237 239 241 243 245 247 249 250 252 253 254 254 254 254 254 254 255 256 257 258 259 259 260 261 262 263 263 263 264 264 264 265 266
242 230 229 232 235 235 230 225 225 227 229 231 231 231 229 227 226 224 223 222 221 221 220 218 216 215 216 218 220 220 219 220 221 223 225 227 227 228 229 230 231 231 231 232 231 231 231 234 237 238 238 238 239 238 238 238 240 242 244 245 247 249 251 252 253 254 255 255 256 255 256 256 257 258 259 260 261 262 263 264 264 264 264 265 265 266 267
285 269 254 245 238 233 229 225 222 223 224 226 228 230 231 231 231 230 228 226 225 225 226 225 222 219 219 220 222 223 224 225 225 225 225 225 225 225 225 226 228 230 232 234 236 236 236 238 241 242 243 243 245 246 246 245 244 245 247 248 248 249 250 251 253 254 255 256 256 257 257 257 258 258 259 260 261 262 263 263 264 265 265 266 266 267 267
295 298 296 283 260 244 235 229 224 222 222 223 224 225 226 228 230 231 231 232 231 230 231 231 229 227 226 226 226 227 228 229 230 230 231 232 232 231 231 233 235 237 239 241 244 245 244 245 246 247 248 248 249 250 252 252 250 250 249 250 250 251 251 252 252 253 253 254 255 256 257 257 257 258 258 259 260 261 262 262 263 264 265 265 266 267 267
304 302 302 306 306 286 260 242 231 225 223 222 223 224 224 224 225 226 227 230 232 233 234 235 235 235 234 234 234 234 234 234 234 234 235 236 238 239 239 240 241 243 245 246 248 249 249 250 251 252 253 252 251 251 252 252 253 252 251 251 251 251 251 252 252 252 253 253 254 255 255 256 257 257 258 258 259 259 260 261 262 263 264 265 265 266 267
324 311 298 293 298 304 299 275 247 233 228 225 223 223 224 224 224 223 223 224 227 230 232 234 235 237 238 239 240 240 240 240 239 239 239 240 242 243 244 245 245 246 247 249 250 251 252 252 253 254 254 254 253 253 252 252 252 252 251 251 251 250 251 251 252 252 253 254 254 255 256 257 257 258 259 259 260 260 261 261 262 262 263 264 264 265 265
333 329 321 308 297 292 295 292 269 242 233 230 228 225 223 223 224 225 224 223 223 224 226 228 230 232 234 237 239 240 241 241 241 241 241 242 243 245 246 247 248 249 249 250 251 252 252 253 253 254 255 257 258 256 255 253 252 251 250 250 250 250 250 250 250 251 253 253 254 255 256 257 258 258 259 259 260 260 261 261 262 262 263 263 264 265 265
335 336 338 336 319 287 278 292 287 255 236 232 231 227 224 222 222 223 224 224 224 223 222 223 224 225 228 231 234 237 239 240 241 241 241 242 243 244 246 247 248 250 250 251 251 252 252 253 253 253 253 254 254 253 251 250 248 248 248 249 250 250 250 250 250 250 251 252 252 253 254 255 256 257 258 258 259 260 260 261 262 262 263 264 265 266 266
342 337 339 343 339 309 267 272 288 271 247 239 235 230 226 224 224 224 225 225 225 224 223 222 221 221 223 226 229 233 235 237 238 238 238 239 240 241 242 244 246 248 249 250 250 250 250 250 247 244 240 239 239 242 244 243 242 243 245 247 247 248 249 250 250 250 250 250 251 252 253 254 255 255 256 257 258 259 260 261 262 263 264 265 266 267 268
358 346 339 342 343 325 267 244 259 276 262 242 234 229 226 225 225 224 224 226 226 226 225 224 222 220 220 221 224 227 229 231 231 230 230 232 234 236 238 239 241 242 244 245 245 245 245 244 241 236 234 235 238 243 246 246 246 246 247 247 247 248 248 248 249 249 249 249 250 251 251 252 253 254 255 256 257 258 259 260 262 263 264 265 266 267 268
358 1 347 335 331 316 273 237 240 264 261 229 218 220 224 224 223 220 219 219 220 221 222 223 223 222 220 219 220 221 222 222 222 221 222 223 225 229 232 234 234 235 237 239 241 241 242 241 240 236 234 234 237 242 246 249 249 249 249 248 248 248 248 248 248 249 249 249 250 250 251 252 253 254 254 255 256 258 259 260 261 263 264 265 266 267 268
339 351 357 344 320 303 278 248 245 260 262 234 209 207 215 219 219 218 216 214 213 212 214 217 221 223 223 221 219 218 218 216 213 212 214 217 219 221 224 227 229 230 232 235 238 240 240 240 240 239 237 237 237 239 242 246 248 250 251 252 251 250 249 249 249 249 249 249 250 250 251 252 252 253 254 255 256 257 258 259 261 262 263 264 265 266 267
325 332 341 347 327 284 267 259 264 273 268 243 229 229 229 219 213 211 212 211 209 207 209 212 218 224 228 226 221 216 214 211 207 205 208 214 219 220 222 224 227 229 231 234 238 240 240 240 240 240 240 239 240 241 244 247 250 252 253 253 253 252 251 251 251 251 251 251 251 251 251 252 252 253 254 255 256 257 258 259 261 262 263 265 266 267 268
322 320 323 329 329 300 239 241 253 257 236 218 222 232 236 225 213 207 207 208 206 204 205 212 219 223 224 221 216 211 207 204 203 204 209 214 220 224 225 226 227 229 231 233 237 240 241 241 241 242 243 243 245 247 250 251 253 253 254 254 254 254 255 254 254 254 254 254 254 254 254 254 254 255 256 257 258 259 260 262 263 264 265 266 267 268 269
323 318 314 314 315 311 274 232 231 229 218 207 206 211 217 224 229 227 221 215 211 208 210 218 224 222 214 206 203 201 199 199 204 210 215 218 221 225 226 227 229 231 232 234 237 240 242 243 243 245 247 248 249 250 252 253 254 255 256 256 256 257 257 258 258 258 258 258 259 259 259 259 259 259 260 261 261 262 262 263 264 265 267 268 269 270 270
318 317 314 310 305 300 291 267 233 218 214 213 214 215 217 225 236 240 236 229 221 215 213 214 215 213 207 202 200 200 202 207 214 221 225 225 224 223 222 223 226 229 232 234 237 240 243 245 246 246 246 248 249 249 251 254 256 258 260 261 261 261 261 262 262 262 263 263 264 264 264 264 263 263 262 262 263 263 264 265 266 268 269 269 271 271 272
310 310 311 310 306 299 291 283 273 243 218 212 214 218 221 226 230 230 228 227 227 225 222 219 214 210 206 204 203 204 209 216 222 226 229 231 232 230 227 227 229 232 235 237 240 242 243 245 247 246 244 244 246 249 252 255 257 260 261 262 263 263 263 264 265 266 267 267 268 268 268 266 264 262 262 263 265 266 268 269 269 270 269 269 270 271 272
307 306 307 306 306 305 297 286 279 273 255 228 214 211 215 221 226 227 224 221 221 224 227 226 222 219 218 218 215 213 212 214 218 221 225 228 230 231 232 232 234 236 237 238 241 242 242 244 246 247 245 243 245 249 252 255 258 260 261 261 262 264 266 268 270 271 270 268 266 265 263 261 260 261 263 265 266 267 268 270 271 271 271 271 272 272 273
303 302 302 301 302 304 302 292 281 273 267 256 238 219 212 212 218 222 225 225 224 225 226 227 226 227 230 230 228 225 222 223 226 228 227 226 225 227 229 230 231 234 236 238 240 241 240 240 243 246 247 245 246 250 253 256 258 260 261 262 263 264 265 266 267 267 265 263 261 260 260 260 261 264 265 267 267 269 270 271 272 272 272 271 271 271 271
294 294 295 295 296 297 297 295 288 278 268 261 256 248 233 221 217 217 219 221 224 226 227 228 228 229 231 233 232 232 232 234 234 231 229 228 227 227 228 231 233 236 239 241 241 240 240 240 240 242 244 245 247 250 252 254 255 256 258 261 263 263 262 262 264 265 265 265 265 264 264 264 264 265 265 266 268 270 271 270 270 269 269 269 269 269 270
Height
5716 5723 5728 5732 5735 5741 5744 5747 5751 5759 5766 5770 5774 5778 5783 5788 5790 5794 5799 5803 5806 5809 5810 5812 5816 5818 5819 5820 5822 5825 5828 5831 5834 5837 5839 5842 5844 5847 5849 5852 5856 5859 5861 5863 5866 5869 5871 5873 5875 5877 5879 5880 5882 5884 5887 5889 5891 5893 5895 5897 5898 5900 5903 5905 5907 5909 5911 5913 5915 5916 5917 5919 5920 5921 5922 5923 5924 5925 5926 5928 5929 5930 5931 5932 5933 5934 5934
5714 5719 5723 5727 5731 5736 5741 5745 5750 5757 5763 5768 5772 5777 5782 5785 5789 5793 5797 5800 5804 5807 5807 5809 5812 5815 5817 5818 5820 5823 5826 5829 5832 5835 5837 5840 5842 5844 5847 5851 5855 5858 5860 5862 5864 5867 5869 5871 5873 5875 5877 5879 5881 5883 5885 5888 5890 5892 5893 5895 5897 5899 5901 5903 5905 5907 5909 5912 5914 5915 5917 5918 5918 5919 5920 5921 5922 5923 5924 5926 5927 5928 5930 5931 5932 5932 5933
5710 5715 5720 5724 5728 5733 5739 5744 5750 5756 5762 5767 5772 5776 5780 5784 5787 5791 5794 5797 5800 5803 5804 5805 5807 5811 5814 5816 5818 5821 5824 5827 5830 5833 5835 5838 5841 5843 5846 5849 5853 5856 5858 5860 5862 5865 5867 5870 5872 5874 5876 5877 5879 5882 5884 5887 5889 5890 5892 5894 5896 5898 5900 5901 5903 5905 5908 5910 5912 5914 5915 5916 5916 5917 5918 5919 5920 5921 5922 5924 5925 5926 5927 5929 5930 5930 5931
5705 5711 5717 5722 5727 5732 5735 5740 5745 5752 5757 5762 5767 5773 5777 5780 5784 5788 5791 5794 5797 5799 5800 5802 5804 5807 5811 5814 5816 5819 5822 5825 5828 5831 5834 5836 5839 5842 5844 5847 5851 5854 5857 5859 5861 5864 5866 5869 5871 5873 5874 5876 5878 5881 5883 5885 5887 5889 5891 5893 5894 5896 5898 5900 5902 5904 5906 5908 5910 5912 5913 5914 5914 5915 5915 5916 5917 5918 5920 5921 5923 5924 5925 5926 5927 5928 5929
5700 5708 5714 5719 5724 5727 5730 5734 5740 5745 5751 5757 5762 5766 5770 5774 5780 5785 5789 5792 5794 5795 5796 5798 5801 5804 5808 5811 5814 5817 5820 5822 5826 5829 5831 5834 5837 5840 5843 5846 5849 5852 5855 5857 5860 5862 5864 5866 5869 5871 5873 5875 5877 5880 5882 5884 5886 5887 5889 5891 5893 5895 5897 5899 5901 5903 5905 5906 5908 5909 5910 5911 5912 5912 5913 5915 5915 5916 5917 5918 5920 5921 5922 5924 5925 5926 5927
5697 5704 5710 5714 5718 5720 5724 5730 5734 5739 5745 5752 5757 5761 5766 5772 5778 5782 5786 5788 5790 5791 5792 5795 5798 5801 5805 5808 5812 5815 5818 5820 5823 5826 5829 5832 5835 5838 5840 5843 5846 5849 5851 5854 5856 5859 5861 5863 5865 5867 5870 5873 5875 5877 5879 5882 5884 5886 5888 5890 5892 5894 5896 5898 5900 5902 5903 5905 5906 5907 5908 5908 5909 5910 5912 5912 5913 5914 5915 5915 5917 5919 5920 5921 5922 5924 5925
5694 5701 5704 5707 5710 5714 5718 5724 5729 5735 5742 5747 5753 5759 5766 5771 5775 5778 5780 5782 5785 5787 5789 5792 5795 5798 5801 5805 5809 5813 5816 5818 5821 5824 5827 5829 5832 5835 5837 5840 5842 5845 5847 5850 5853 5855 5857 5859 5861 5864 5867 5870 5873 5875 5877 5880 5882 5884 5886 5889 5891 5893 5895 5897 5898 5900 5902 5903 5904 5904 5905 5906 5906 5908 5909 5910 5910 5911 5912 5913 5914 5916 5917 5918 5919 5921 5922
5690 5696 5698 5700 5705 5710 5714 5720 5726 5733 5738 5743 5750 5757 5764 5769 5772 5774 5775 5778 5781 5784 5786 5789 5792 5794 5797 5803 5807 5811 5813 5816 5818 5821 5825 5827 5829 5832 5835 5837 5839 5842 5845 5848 5850 5853 5855 5857 5860 5862 5865 5868 5870 5873 5876 5878 5881 5883 5885 5887 5889 5891 5893 5895 5896 5898 5899 5900 5901 5902 5902 5903 5904 5905 5906 5907 5907 5908 5909 5910 5911 5912 5914 5915 5917 5918 5919
5683 5690 5694 5699 5704 5706 5709 5715 5723 5729 5734 5740 5746 5752 5758 5763 5765 5767 5770 5774 5777 5780 5783 5787 5789 5790 5795 5801 5805 5808 5811 5813 5815 5819 5822 5825 5827 5829 5832 5834 5837 5840 5843 5845 5848 5850 5853 5855 5858 5861 5864 5866 5869 5871 5874 5876 5879 5881 5883 5885 5887 5889 5891 5892 5894 5896 5897 5898 5899 5899 5900 5900 5901 5902 5903 5904 5904 5905 5906 5907 5909 5910 5912 5913 5914 5915 5916
5679 5686 5691 5696 5700 5701 5704 5710 5717 5724 5730 5736 5741 5747 5753 5757 5758 5761 5766 5770 5774 5778 5781 5784 5786 5788 5793 5798 5801 5804 5807 5809 5813 5816 5819 5822 5825 5827 5829 5831 5834 5837 5840 5843 5845 5848 5851 5853 5856 5858 5861 5864 5866 5869 5872 5874 5877 5878 5880 5883 5884 5886 5888 5890 5891 5893 5894 5895 5896 5897 5897 5898 5899 5899 5900 5901 5902 5902 5903 5905 5906 5907 5908 5909 5911 5912 5914
5678 5683 5687 5690 5694 5695 5698 5706 5713 5719 5726 5732 5738 5745 5749 5752 5754 5759 5764 5768 5772 5776 5779 5781 5783 5786 5790 5794 5797 5800 5804 5806 5809 5813 5816 5819 5822 5824 5826 5829 5831 5834 5837 5839 5842 5845 5848 5851 5853 5856 5858 5860 5863 5866 5868 5871 5874 5876 5878 5880 5881 5883 5885 5886 5888 5890 5892 5893 5894 5895 5895 5895 5896 5897 5898 5898 5899 5900 5901 5902 5903 5904 5905 5906 5908 5909 5911
5673 5679 5682 5687 5692 5693 5696 5702 5709 5714 5721 5729 5736 5741 5743 5747 5751 5757 5762 5765 5769 5773 5776 5778 5781 5784 5787 5791 5794 5797 5801 5803 5806 5810 5813 5816 5819 5821 5824 5826 5828 5831 5833 5836 5838 5841 5844 5847 5850 5853 5855 5857 5859 5862 5864 5867 5869 5872 5874 5876 5878 5880 5881 5883 5885 5887 5889 5890 5892 5893 5893 5893 5893 5894 5895 5896 5896 5897 5898 5899 5900 5901 5902 5904 5905 5907 5908
5669 5673 5678 5684 5690 5693 5694 5699 5705 5710 5717 5725 5732 5735 5738 5742 5747 5753 5757 5761 5765 5769 5772 5775 5779 5782 5784 5788 5792 5795 5798 5801 5804 5807 5811 5814 5816 5819 5821 5823 5826 5828 5830 5833 5836 5838 5840 5843 5846 5848 5851 5853 5855 5858 5860 5863 5865 5867 5870 5872 5874 5876 5878 5880 5882 5884 5886 5887 5889 5890 5891 5891 5891 5891 5892 5893 5894 5895 5896 5897 5898 5899 5900 5901 5903 5904 5905
5667 5670 5675 5681 5687 5691 5693 5696 5701 5707 5713 5719 5725 5731 5735 5737 5741 5746 5751 5755 5760 5765 5768 5771 5775 5778 5781 5785 5789 5792 5796 5799 5802 5805 5808 5811 5814 5816 5819 5821 5823 5825 5828 5830 5833 5835 5837 5839 5842 5844 5847 5849 5851 5854 5856 5859 5861 5863 5866 5868 5870 5872 5874 5876 5878 5880 5882 5884 5885 5886 5887 5888 5888 5889 5889 5890 5891 5892 5893 5894 5895 5896 5897 5898 5899 5900 5901
5663 5667 5673 5679 5683 5686 5690 5693 5697 5703 5709 5714 5720 5728 5732 5732 5733 5738 5744 5750 5755 5760 5763 5766 5770 5775 5778 5781 5785 5788 5792 5795 5799 5802 5805 5808 5811 5813 5816 5818 5820 5823 5825 5828 5830 5832 5834 5836 5838 5841 5843 5845 5848 5850 5853 5855 5857 5859 5861 5864 5866 5868 5870 5872 5874 5875 5877 5879 5880 5882 5883 5884 5885 5886 5887 5887 5888 5889 5890 5891 5892 5893 5894 5895 5896 5897 5898
5661 5666 5671 5675 5678 5681 5685 5688 5692 5697 5704 5711 5717 5722 5727 5728 5727 5730 5737 5744 5750 5754 5758 5761 5766 5771 5774 5778 5781 5785 5788 5791 5795 5798 5802 5805 5807 5810 5812 5815 5817 5820 5822 5825 5827 5828 5830 5833 5835 5837 5840 5842 5845 5847 5849 5851 5853 5855 5857 5859 5861 5863 5865 5867 5868 5870 5872 5873 5875 5877 5878 5880 5881 5882 5883 5884 5885 5886 5887 5888 5889 5890 5891 5891 5892 5893 5894
5658 5661 5665 5669 5673 5675 5679 5683 5688 5693 5700 5707 5712 5717 5722 5724 5723 5724 5731 5739 5744 5748 5753 5757 5762 5767 5771 5774 5777 5781 5785 5788 5791 5794 5798 5801 5803 5806 5809 5811 5813 5816 5819 5821 5823 5825 5827 5829 5832 5834 5836 5839 5841 5843 5845 5847 5849 5851 5853 5855 5857 5858 5860 5862 5864 5865 5867 5868 5870 5872 5874 5875 5877 5879 5880 5881 5882 5883 5884 5885 5886 5887 5888 5888 5889 5890 5891
5652 5655 5659 5665 5668 5670 5675 5681 5686 5691 5697 5702 5708 5713 5717 5719 5718 5719 5724 5729 5735 5741 5746 5751 5757 5763 5767 5770 5773 5777 5781 5785 5788 5791 5794 5797 5800 5803 5805 5807 5809 5812 5815 5817 5820 5822 5824 5826 5828 5831 5833 5835 5838 5840 5842 5844 5846 5847 5849 5851 5853 5854 5856 5858 5859 5861 5862 5864 5865 5867 5869 5871 5873 5874 5876 5877 5878 5879 5881 5882 5883 5884 5885 5885 5886 5887 5888
5648 5651 5656 5661 5661 5664 5672 5680 5685 5689 5694 5699 5704 5708 5712 5714 5714 5715 5719 5723 5728 5734 5739 5743 5749 5756 5762 5767 5770 5774 5778 5782 5785 5788 5790 5793 5796 5799 5802 5804 5806 5808 5810 5813 5816 5819 5821 5823 5825 5827 5830 5832 5834 5836 5838 5841 5842 5844 5846 5848 5849 5851 5853 5854 5856 5857 5859 5860 5862 5863 5865 5866 5868 5870 5871 5873 5874 5876 5877 5878 5879 5880 5881 5882 5883 5884 5884
5645 5649 5654 5656 5656 5661 5671 5678 5682 5687 5691 5695 5699 5704 5708 5711 5713 5714 5716 5720 5724 5729 5733 5737 5742 5748 5754 5761 5765 5770 5774 5777 5780 5783 5786 5789 5792 5795 5798 5800 5802 5804 5806 5809 5812 5815 5818 5820 5822 5824 5826 5829 5831 5833 5835 5837 5839 5841 5843 5845 5847 5849 5850 5852 5853 5855 5856 5857 5858 5860 5861 5862 5863 5865 5867 5869 5870 5871 5872 5873 5875 5876 5877 5878 5879 5880 5881
5644 5650 5654 5656 5658 5663 5671 5677 5681 5686 5690 5693 5696 5700 5703 5707 5710 5712 5714 5717 5722 5725 5728 5732 5737 5742 5748 5754 5758 5763 5768 5771 5775 5778 5782 5785 5788 5791 5794 5796 5798 5800 5802 5805 5808 5811 5813 5816 5819 5821 5823 5826 5828 5830 5832 5834 5836 5838 5840 5842 5844 5846 5847 5849 5850 5852 5853 5854 5855 5856 5857 5859 5860 5862 5863 5865 5866 5867 5868 5869 5870 5871 5872 5873 5874 5875 5876
5644 5648 5651 5654 5657 5663 5669 5675 5680 5686 5689 5692 5695 5699 5701 5703 5705 5708 5711 5715 5719 5722 5725 5730 5734 5739 5744 5749 5753 5758 5761 5765 5769 5774 5777 5780 5783 5786 5789 5792 5794 5796 5798 5801 5804 5806 5809 5812 5814 5816 5819 5822 5824 5826 5829 5830 5832 5834 5836 5839 5841 5842 5844 5845 5847 5848 5849 5850 5852 5853 5854 5856 5857 5859 5860 5861 5861 5863 5864 5865 5866 5866 5867 5868 5869 5870 5871
5643 5645 5647 5651 5656 5662 5668 5672 5678 5683 5687 5689 5693 5696 5699 5701 5703 5704 5707 5711 5715 5719 5723 5728 5732 5736 5740 5744 5748 5753 5756 5760 5764 5769 5773 5776 5779 5782 5785 5787 5790 5793 5795 5797 5800 5802 5804 5807 5810 5812 5814 5817 5820 5822 5824 5826 5828 5830 5832 5835 5837 5839 5840 5841 5843 5844 5845 5847 5848 5849 5851 5852 5853 5854 5855 5856 5857 5858 5859 5860 5861 5862 5862 5863 5863 5864 5865
5643 5644 5646 5650 5656 5662 5666 5669 5673 5678 5682 5685 5688 5691 5694 5697 5701 5703 5705 5707 5711 5715 5719 5723 5727 5730 5734 5738 5742 5747 5751 5755 5759 5765 5769 5772 5774 5777 5780 5783 5786 5789 5791 5794 5796 5798 5800 5802 5805 5807 5810 5812 5815 5817 5820 5822 5824 5826 5828 5830 5832 5834 5836 5837 5839 5840 5841 5842 5844 5845 5847 5848 5849 5850 5851 5852 5853 5853 5854 5855 5856 5857 5857 5857 5858 5859 5860
5643 5645 5647 5650 5656 5662 5665 5666 5669 5674 5677 5680 5683 5686 5689 5693 5697 5701 5703 5705 5707 5710 5713 5717 5720 5724 5728 5731 5736 5741 5746 5750 5754 5759 5764 5767 5769 5772 5775 5778 5781 5784 5787 5789 5792 5794 5797 5798 5800 5802 5805 5807 5810 5812 5814 5817 5820 5822 5824 5826 5827 5829 5831 5833 5835 5836 5837 5838 5840 5841 5843 5844 5845 5846 5847 5847 5848 5848 5849 5850 5851 5852 5852 5852 5853 5854 5856
5643 5645 5646 5649 5655 5662 5664 5665 5669 5673 5674 5675 5678 5682 5685 5688 5693 5698 5701 5703 5704 5707 5709 5712 5716 5719 5723 5727 5731 5736 5741 5745 5749 5753 5757 5761 5764 5767 5769 5773 5776 5780 5783 5785 5787 5790 5792 5795 5797 5798 5800 5802 5805 5807 5809 5812 5814 5817 5819 5820 5822 5824 5826 5828 5830 5832 5833 5834 5835 5837 5838 5839 5840 5841 5842 5842 5842 5842 5843 5845 5846 5846 5846 5847 5848 5850 5851
5642 5644 5645 5648 5655 5661 5662 5663 5666 5667 5667 5670 5674 5677 5681 5684 5688 5692 5696 5699 5701 5703 5705 5708 5711 5715 5718 5722 5726 5731 5736 5740 5744 5748 5752 5755 5758 5761 5764 5767 5771 5775 5778 5781 5783 5785 5787 5790 5792 5794 5796 5798 5800 5802 5804 5807 5809 5811 5813 5815 5817 5818 5820 5823 5824 5826 5828 5829 5830 5831 5832 5834 5835 5836 5836 5836 5836 5836 5839 5840 5840 5839 5840 5841 5843 5844 5846
5640 5642 5642 5646 5653 5656 5655 5655 5659 5661 5664 5668 5670 5672 5676 5679 5683 5686 5690 5694 5697 5699 5701 5704 5707 5710 5714 5718 5722 5726 5731 5735 5739 5743 5746 5750 5753 5755 5758 5762 5766 5770 5773 5776 5778 5781 5783 5785 5787 5790 5792 5794 5796 5798 5800 5802 5804 5805 5807 5809 5811 5813 5815 5817 5819 5820 5822 5824 5825 5826 5827 5828 5829 5829 5828 5829 5831 5831 5833 5834 5834 5833 5835 5837 5838 5839 5840
5634 5635 5636 5640 5645 5646 5646 5649 5655 5659 5662 5663 5665 5667 5670 5674 5677 5681 5684 5688 5692 5694 5696 5699 5702 5705 5710 5715 5719 5723 5727 5731 5734 5738 5741 5745 5748 5750 5753 5757 5761 5764 5768 5771 5774 5776 5778 5780 5782 5784 5787 5789 5791 5793 5796 5797 5798 5800 5802 5803 5805 5807 5809 5811 5813 5814 5816 5818 5819 5821 5822 5822 5823 5823 5822 5824 5826 5826 5826 5826 5827 5827 5830 5832 5833 5834 5834
5625 5626 5629 5633 5636 5638 5642 5647 5651 5653 5654 5656 5658 5661 5665 5668 5672 5676 5679 5683 5686 5688 5689 5693 5697 5700 5704 5710 5715 5720 5723 5726 5729 5733 5736 5740 5743 5745 5749 5752 5756 5759 5763 5766 5769 5771 5773 5775 5777 5779 5781 5784 5786 5788 5790 5792 5793 5794 5796 5798 5800 5801 5803 5805 5807 5808 5810 5812 5814 5815 5816 5817 5818 5818 5818 5818 5820 5821 5821 5821 5821 5822 5823 5825 5827 5827 5828
5621 5621 5623 5626 5628 5632 5638 5643 5644 5645 5647 5650 5652 5656 5660 5663 5667 5670 5674 5677 5680 5682 5683 5687 5690 5694 5698 5703 5709 5714 5717 5720 5723 5727 5730 5734 5737 5740 5743 5747 5750 5753 5757 5760 5763 5766 5768 5769 5771 5774 5776 5779 5781 5782 5784 5786 5787 5789 5791 5792 5794 5795 5797 5799 5801 5802 5804 5805 5807 5808 5809 5811 5812 5812 5812 5812 5813 5814 5814 5815 5816 5816 5817 5817 5818 5818 5819
5618 5618 5619 5619 5619 5622 5627 5631 5634 5637 5639 5642 5646 5650 5654 5658 5661 5664 5667 5670 5673 5676 5678 5681 5684 5688 5691 5696 5703 5707 5710 5713 5717 5721 5724 5727 5731 5734 5737 5740 5743 5747 5751 5754 5757 5760 5762 5763 5765 5768 5770 5773 5775 5776 5778 5780 5782 5783 5785 5787 5788 5790 5791 5793 5794 5796 5797 5799 5800 5801 5803 5804 5805 5805 5806 5806 5806 5807 5808 5809 5810 5810 5810 5810 5810 5810 5810
5615 5615 5615 5615 5615 5615 5616 5619 5623 5627 5630 5634 5640 5644 5648 5651 5655 5658 5661 5664 5667 5671 5673 5675 5678 5682 5686 5691 5697 5702 5705 5708 5711 5715 5717 5721 5725 5728 5731 5734 5737 5741 5745 5748 5751 5755 5756 5757 5759 5762 5764 5766 5768 5770 5772 5774 5776 5778 5780 5782 5783 5784 5786 5787 5788 5789 5791 5792 5793 5795 5796 5797 5798 5798 5799 5799 5800 5800 5801 5803 5803 5804 5803 5803 5803 5803 5803
5613 5612 5612 5612 5612 5611 5611 5612 5613 5616 5620 5625 5631 5636 5641 5645 5648 5651 5654 5658 5662 5665 5667 5669 5672 5677 5681 5685 5691 5696 5700 5703 5706 5709 5712 5716 5719 5722 5725 5728 5732 5736 5739 5742 5746 5749 5751 5752 5753 5755 5757 5759 5762 5765 5767 5769 5772 5773 5775 5776 5777 5779 5780 5781 5782 5783 5784 5785 5787 5788 5789 5790 5791 5791 5792 5793 5793 5794 5795 5795 5796 5796 5796 5796 5796 5796 5796
5610 5610 5609 5608 5608 5608 5608 5608 5608 5609 5612 5616 5621 5626 5631 5635 5639 5643 5647 5651 5655 5658 5660 5663 5668 5673 5677 5680 5684 5689 5694 5698 5701 5705 5708 5711 5714 5716 5720 5723 5726 5730 5733 5736 5740 5743 5745 5746 5747 5749 5751 5754 5756 5759 5761 5764 5767 5768 5769 5770 5771 5772 5774 5775 5776 5777 5778 5779 5780 5781 5782 5783 5784 5784 5785 5786 5786 5786 5787 5787 5788 5788 5789 5789 5789 5789 5789
5608 5607 5607 5606 5605 5605 5605 5605 5605 5606 5607 5610 5613 5617 5621 5625 5629 5635 5640 5644 5647 5650 5653 5658 5663 5668 5671 5674 5678 5682 5687 5691 5696 5700 5704 5706 5709 5712 5715 5718 5721 5723 5727 5730 5733 5736 5739 5740 5741 5743 5745 5748 5751 5753 5755 5757 5759 5761 5762 5763 5764 5765 5766 5767 5768 5769 5770 5771 5772 5773 5774 5775 5776 5777 5777 5778 5778 5779 5779 5779 5780 5781 5781 5781 5781 5781 5781
5606 5605 5604 5603 5603 5602 5602 5602 5602 5603 5604 5605 5607 5609 5612 5616 5620 5625 5630 5634 5638 5643 5647 5651 5656 5661 5665 5668 5671 5675 5680 5685 5690 5694 5698 5701 5704 5706 5710 5713 5715 5718 5720 5723 5725 5729 5732 5734 5735 5737 5739 5741 5745 5747 5749 5749 5750 5751 5753 5755 5756 5757 5758 5759 5760 5761 5762 5763 5764 5765 5766 5767 5768 5768 5769 5770 5770 5771 5771 5771 5772 5772 5773 5772 5772 5772 5772
5603 5603 5602 5601 5600 5600 5599 5599 5599 5599 5600 5601 5603 5604 5606 5609 5613 5616 5620 5624 5628 5633 5638 5643 5648 5653 5658 5660 5663 5667 5673 5678 5683 5687 5692 5696 5699 5701 5703 5706 5709 5712 5714 5716 5719 5721 5723 5726 5729 5731 5732 5734 5737 5740 5742 5742 5742 5743 5744 5746 5748 5749 5750 5751 5752 5753 5754 5755 5756 5757 5758 5759 5760 5761 5761 5762 5762 5762 5763 5763 5763 5764 5764 5764 5764 5764 5764
5601 5600 5600 5599 5597 5597 5596 5596 5596 5595 5596 5597 5599 5600 5602 5603 5606 5609 5612 5615 5618 5622 5626 5631 5636 5642 5646 5650 5653 5658 5664 5669 5675 5681 5686 5689 5692 5694 5696 5699 5702 5705 5708 5710 5712 5713 5715 5719 5722 5724 5726 5727 5729 5731 5733 5733 5734 5735 5736 5738 5739 5740 5742 5743 5744 5745 5746 5748 5748 5749 5750 5751 5752 5753 5753 5754 5754 5754 5754 5754 5754 5754 5755 5755 5755 5755 5754
5599 5598 5597 5596 5595 5594 5594 5594 5594 5593 5593 5594 5595 5596 5597 5599 5601 5602 5604 5606 5608 5611 5615 5619 5624 5630 5635 5640 5646 5651 5656 5661 5667 5673 5678 5681 5684 5686 5689 5691 5694 5697 5701 5704 5705 5705 5707 5712 5715 5718 5721 5721 5719 5720 5722 5723 5725 5727 5729 5730 5731 5732 5733 5734 5736 5738 5739 5739 5740 5741 5742 5743 5743 5744 5744 5745 5745 5745 5745 5745 5745 5745 5745 5745 5746 5745 5745
5599 5597 5596 5595 5593 5593 5593 5593 5593 5592 5592 5592 5592 5593 5594 5595 5597 5598 5599 5600 5602 5605 5608 5611 5615 5621 5627 5634 5639 5643 5647 5653 5659 5665 5670 5673 5675 5678 5680 5683 5686 5689 5693 5695 5697 5698 5701 5704 5707 5711 5714 5713 5710 5710 5713 5715 5717 5719 5721 5722 5723 5724 5725 5726 5728 5729 5730 5730 5731 5732 5733 5734 5734 5735 5735 5736 5736 5736 5736 5736 5736 5736 5736 5736 5736 5736 5736
5598 5597 5595 5593 5592 5592 5592 5592 5592 5591 5590 5590 5590 5591 5592 5593 5594 5595 5596 5597 5599 5601 5603 5607 5610 5615 5621 5626 5630 5634 5639 5645 5651 5657 5661 5664 5667 5670 5674 5676 5679 5682 5684 5687 5689 5691 5693 5695 5698 5701 5704 5704 5703 5703 5705 5708 5710 5712 5713 5714 5715 5716 5716 5717 5719 5720 5721 5722 5723 5723 5724 5725 5725 5726 5726 5727 5727 5727 5727 5727 5727 5727 5727 5727 5727 5727 5727
5598 5596 5595 5593 5592 5591 5591 5591 5590 5590 5589 5589 5589 5589 5590 5591 5592 5593 5594 5595 5596 5598 5601 5604 5608 5611 5614 5618 5621 5625 5631 5637 5643 5648 5652 5657 5661 5665 5669 5671 5673 5675 5677 5678 5680 5682 5684 5686 5689 5691 5693 5695 5696 5696 5697 5699 5701 5703 5705 5706 5707 5708 5708 5709 5710 5711 5712 5713 5714 5715 5715 5716 5716 5717 5717 5718 5718 5718 5719 5719 5719 5719 5718 5718 5718 5717 5717
5597 5596 5595 5593 5592 5591 5590 5590 5589 5588 5588 5588 5588 5588 5588 5589 5590 5591 5592 5593 5594 5596 5598 5601 5605 5608 5610 5612 5615 5619 5624 5630 5635 5641 5647 5652 5656 5659 5661 5663 5666 5668 5670 5671 5672 5674 5676 5678 5680 5682 5684 5686 5687 5688 5688 5690 5692 5694 5696 5697 5698 5699 5700 5701 5702 5703 5704 5705 5705 5706 5706 5707 5707 5708 5708 5709 5709 5709 5709 5709 5709 5709 5709 5708 5708 5708 5708
5596 5595 5594 5593 5592 5591 5590 5589 5588 5587 5587 5587 5588 5588 5588 5588 5589 5590 5591 5592 5593 5594 5596 5599 5602 5604 5606 5608 5610 5614 5619 5625 5631 5637 5643 5647 5649 5651 5654 5656 5658 5661 5663 5665 5666 5668 5670 5671 5673 5674 5675 5677 5678 5679 5680 5682 5684 5686 5687 5688 5689 5690 5691 5692 5693 5694 5695 5696 5696 5697 5698 5698 5699 5699 5699 5699 5700 5700 5701 5701 5701 5700 5700 5700 5700 5700 5700
5595 5594 5593 5592 5591 5590 5589 5589 5589 5588 5588 5588 5588 5588 5588 5588 5589 5590 5591 5591 5592 5593 5595 5597 5599 5601 5603 5605 5608 5612 5618 5624 5630 5634 5638 5640 5643 5646 5648 5650 5653 5655 5658 5660 5662 5663 5664 5665 5666 5667 5668 5670 5671 5672 5674 5675 5677 5678 5679 5680 5680 5681 5682 5683 5684 5685 5686 5687 5687 5688 5689 5689 5690 5690 5691 5691 5692 5693 5693 5693 5693 5692 5692 5692 5691 5691 5691
5594 5592 5591 5591 5590 5589 5588 5588 5588 5588 5588 5588 5588 5588 5589 5589 5589 5590 5590 5591 5592 5593 5594 5596 5598 5600 5602 5604 5608 5612 5617 5623 5627 5631 5633 5635 5638 5640 5642 5645 5647 5650 5652 5655 5656 5657 5658 5659 5660 5661 5662 5664 5666 5667 5668 5668 5669 5670 5671 5672 5673 5673 5674 5675 5675 5676 5677 5678 5679 5680 5680 5681 5682 5683 5683 5684 5685 5685 5685 5685 5684 5683 5683 5682 5682 5681 5681
5593 5591 5590 5589 5588 5588 5587 5587 5586 5586 5586 5587 5587 5587 5588 5588 5588 5589 5589 5590 5591 5592 5593 5594 5596 5598 5601 5605 5608 5611 5615 5619 5622 5625 5627 5629 5631 5633 5635 5638 5641 5643 5645 5648 5650 5651 5652 5653 5654 5655 5656 5658 5659 5660 5661 5661 5662 5663 5664 5665 5665 5666 5667 5668 5668 5669 5669 5670 5671 5672 5672 5673 5674 5674 5675 5676 5676 5676 5676 5675 5674 5674 5673 5673 5673 5673 5673
5591 5590 5589 5588 5587 5586 5586 5585 5585 5585 5584 5585 5585 5585 5586 5586 5586 5587 5587 5588 5589 5590 5591 5592 5594 5596 5598 5601 5603 5607 5610 5613 5615 5618 5620 5622 5624 5627 5630 5633 5635 5637 5639 5642 5643 5645 5646 5647 5647 5648 5650 5651 5652 5653 5654 5655 5656 5657 5657 5658 5659 5660 5661 5661 5662 5662 5663 5664 5664 5665 5666 5666 5666 5667 5667 5668 5668 5667 5667 5666 5665 5664 5664 5664 5664 5665 5664
5588 5588 5587 5586 5585 5584 5584 5584 5583 5583 5582 5583 5583 5583 5583 5584 5584 5585 5585 5586 5587 5588 5589 5590 5592 5593 5594 5595 5598 5601 5604 5607 5609 5612 5614 5617 5620 5622 5625 5627 5630 5632 5634 5636 5637 5638 5640 5640 5641 5642 5643 5644 5646 5647 5648 5649 5650 5651 5651 5652 5653 5654 5655 5656 5656 5657 5658 5658 5659 5660 5660 5660 5659 5660 5660 5661 5660 5659 5658 5657 5656 5656 5656 5657 5657 5657 5656
5586 5585 5585 5584 5584 5583 5582 5582 5581 5581 5580 5580 5580 5581 5581 5581 5582 5582 5583 5584 5585 5585 5586 5588 5589 5590 5591 5593 5595 5597 5599 5602 5605 5607 5610 5613 5615 5617 5619 5622 5624 5626 5628 5629 5631 5632 5633 5634 5635 5636 5637 5638 5640 5642 5643 5643 5644 5645 5646 5647 5647 5648 5649 5650 5651 5652 5652 5652 5653 5653 5653 5653 5653 5653 5653 5654 5653 5652 5650 5648 5647 5647 5649 5650 5651 5650 5648
5584 5582 5582 5582 5582 5581 5580 5580 5579 5579 5578 5578 5578 5579 5579 5579 5579 5579 5580 5581 5581 5582 5584 5585 5587 5588 5589 5591 5593 5594 5596 5598 5601 5603 5605 5607 5610 5612 5614 5616 5618 5620 5622 5624 5625 5626 5627 5628 5629 5630 5631 5632 5634 5635 5637 5637 5638 5639 5640 5641 5642 5642 5643 5644 5645 5645 5645 5645 5645 5645 5645 5645 5646 5646 5646 5646 5646 5644 5642 5641 5639 5639 5640 5642 5643 5642 5640